[[{"header":{"parameterUnit":"m.s-1","parameterCategory":1,"la1":30.2991,"la2":30.254,"lo1":-89.0895,"lo2":-89.0444,"dy":0.0017,"dx":0.0017,"nx":28,"ny":28,"refTime":"2023-09-26T03:00:00:Z","depth":0,"parameterNumber":2,"parameterNumberName":"U-component_of_WINDS"},"data":[0,0,0,0,0,0,0,0,0,0,0,0,0,0,0,0,0,0,0,0,0,0,0,0,0,0,0,0,0,0,0,0,0,0,0,0,0,0,0,0,0,0,0,0,0,0,0,0,0,0,0,0,0,0,0,0,0,0,-5.2951,-5.2951,0,-5.2948,-5.2948,-5.2948,-5.2787,-5.2782,-5.2778,-5.2774,-5.277,-5.2773,-5.2777,0,0,0,0,0,0,0,0,0,0,0,0,0,-5.2818,-5.2821,-5.2951,-5.2951,-5.2951,-5.2948,-5.2948,-5.2948,-5.2787,-5.2782,-5.2777,-5.2772,-5.2769,-5.2773,-5.2778,0,0,0,0,0,0,0,0,0,0,0,0,0,-5.2852,-5.2823,-5.2951,-5.2871,-5.2864,-5.2948,-5.2948,-5.2948,-5.2788,-5.2782,-5.2776,-5.277,-5.2767,-5.2773,-5.2778,-5.2939,0,0,-5.2796,-5.2798,0,0,0,0,0,0,0,0,-5.285,-5.2857,-5.2883,-5.2877,-5.2869,-5.2861,-5.2899,-5.2945,-5.279,-5.2817,-5.2774,-5.2767,-5.2805,-5.2807,-5.282,-5.2939,-5.2938,-5.2796,-5.2799,-5.2802,-5.2804,0,0,0,0,0,0,0,-5.2848,-5.2856,-5.295,-5.2883,-5.2875,-5.2834,-5.2832,-5.2907,-5.2846,-5.2814,-5.2802,-5.2804,-5.28,-5.2815,-5.2819,-5.2938,-5.2796,-5.2801,-5.2804,-5.2807,-5.3187,-5.3193,0,0,0,0,0,0,-5.2857,-5.2855,-5.295,-5.295,-5.2844,-5.2842,-5.2839,-5.287,-5.2845,-5.2835,-5.281,-5.2797,-5.2809,-5.2813,-5.2818,-5.3003,-5.2802,-5.2807,-5.281,-5.318,-5.3188,-5.3196,0,0,0,0,0,0,-5.2854,-5.2867,-5.295,-5.2899,-5.2907,-5.2851,-5.2886,-5.2873,-5.2888,-5.2842,-5.283,-5.2836,-5.2804,-5.281,-5.291,-5.3001,-5.281,-5.2815,-5.3172,-5.3183,-5.3192,-5.3376,0,0,0,0,0,0,-5.2851,-5.2867,-5.2928,-5.2902,-5.291,-5.3043,-5.2892,-5.2878,-5.2898,-5.2882,-5.2864,-5.2855,-5.28,-5.2902,-5.2916,-5.3005,-5.2819,-5.3164,-5.3177,-5.3189,-5.3362,-5.3391,-5.3417,0,0,0,0,0,-5.2847,-5.298,-5.2932,-5.2944,-5.2985,-5.3048,-5.3053,-5.2987,-5.2907,-5.2967,-5.2937,-5.2855,-5.299,-5.2914,-5.2927,-5.3021,-5.3158,-5.3173,-5.3188,-5.3349,-5.3386,-5.3416,0,0,0,0,0,0,-5.3017,-5.2975,-5.2921,-5.3049,-5.3054,-5.3021,-5.3094,-5.3027,-5.3054,-5.3037,-5.2954,-5.2952,-5.3064,-5.3052,-5.2969,-5.3174,-5.3059,-5.3078,-5.3177,-5.3211,-5.3238,-5.3238,-5.2824,0,0,0,0,0,-5.307,-5.3125,-5.3085,-5.3202,-5.3207,-5.3151,-5.3176,-5.3125,-5.3126,-5.3127,-5.3104,-5.3108,-5.3151,-5.3181,-5.3217,-5.336,-5.3353,-5.3431,-5.3458,-5.3481,-5.3497,-5.3571,-5.3604,-5.3245,-5.3245,-5.3245,0,0,-5.3179,-5.3162,-5.3202,-5.3236,-5.3233,-5.3291,-5.3153,-5.3221,-5.3263,-5.3137,-5.3229,-5.3213,-5.3212,-5.3333,-5.3386,-5.3327,-5.3596,-5.35,-5.3519,-5.3523,-5.359,-5.3624,-5.3654,-5.3255,-5.3254,-5.3252,0,0,-5.3406,-5.34,-5.3496,-5.3497,-5.3495,-5.3457,-5.348,-5.3458,-5.3442,-5.3534,-5.344,-5.3489,-5.3565,-5.3567,-5.3579,-5.3809,-5.3734,-5.3823,-5.3966,-5.4039,-5.4067,-5.4091,-5.4172,-5.4202,-5.384,-5.3841,-5.3841,0,-5.3541,-5.3626,-5.3554,-5.3628,-5.3645,-5.3534,-5.363,-5.3634,-5.3645,-5.3659,-5.3593,-5.3686,-5.3677,-5.3797,-5.3853,-5.3867,-5.389,-5.3824,-5.4069,-5.4093,-5.4115,-5.419,-5.4221,-5.3851,-5.385,-5.3849,-5.3848,0,-5.3792,-5.3852,-5.393,-5.3943,-5.3969,-5.4054,-5.3994,-5.403,-5.3977,-5.3946,-5.404,-5.4026,-5.4058,-5.4083,-5.4032,-5.4196,-5.416,-5.4083,-5.3965,-5.4161,-5.4231,-5.4259,-5.3866,-5.3863,-5.3859,-5.3857,0,0,-5.4125,-5.4097,-5.4127,-5.4131,-5.4121,-5.4166,-5.4246,-5.4277,-5.4308,-5.432,-5.4384,-5.4451,-5.438,-5.4393,-5.4342,-5.4406,-5.4587,-5.432,-5.4319,-5.4369,-5.4766,-5.4822,-5.4857,-5.4539,-5.4544,-5.4548,-5.4765,0,-5.4343,-5.4478,-5.4416,-5.4558,-5.4612,-5.4508,-5.4577,-5.4578,-5.4552,-5.4594,-5.4564,-5.4613,-5.4516,-5.4523,-5.4582,-5.4553,-5.4665,-5.4536,-5.4596,-5.46,-5.4598,-5.4894,-5.4953,-5.5159,-5.4792,-5.4797,-5.48,0,-5.4616,-5.4639,-5.4786,-5.4766,-5.4786,-5.485,-5.4873,-5.4915,-5.4914,-5.489,-5.4906,-5.484,-5.4916,-5.4802,-5.4905,-5.4819,-5.484,-5.483,-5.4836,-5.4838,-5.471,-5.4902,-5.5223,-5.5253,-5.4843,-5.4839,-5.4836,0,-5.4842,-5.491,-5.5006,-5.5013,-5.4992,-5.5039,-5.5033,-5.5026,-5.5049,-5.507,-5.5083,-5.5114,-5.513,-5.5154,-5.5098,-5.502,-5.5209,-5.509,-5.5191,-5.5192,-5.5233,-5.5231,-5.5561,-5.5251,-5.5251,-5.525,-5.5249,0,-5.5092,-5.5186,-5.5107,-5.5166,-5.5268,-5.5196,-5.5299,-5.5281,-5.5276,-5.533,-5.5242,-5.5294,-5.5217,-5.5262,-5.5219,-5.5311,-5.5319,-5.5301,-5.5288,-5.5308,-5.531,-5.5319,-5.5303,-5.5258,-5.5256,-5.5255,-5.5253,0,-5.536,-5.5312,-5.541,-5.5383,-5.5378,-5.5454,-5.543,-5.5484,-5.5452,-5.5521,-5.5533,-5.5483,-5.553,-5.5477,-5.5521,-5.5492,-5.5616,-5.5583,-5.5616,-5.5606,-5.5709,-5.57,-5.6055,-5.6097,-5.5762,-5.5766,-5.5768,0,-5.5522,-5.5591,-5.5572,-5.5601,-5.56,-5.5649,-5.5672,-5.5605,-5.5632,-5.5637,-5.569,-5.573,-5.5759,-5.5841,-5.5808,-5.5841,-5.5807,-5.5929,-5.5811,-5.5829,-5.5807,-5.5802,-5.5808,-5.5953,-5.5957,-5.596,-5.5963,0,-5.5813,-5.5786,-5.5822,-5.5851,-5.588,-5.59,-5.5912,-5.5941,-5.5871,-5.5907,-5.5955,-5.5977,-5.6022,-5.6063,-5.6087,-5.608,-5.601,-5.6001,-5.6025,-5.6045,-5.6061,-5.6052,-5.568,-5.5992,-5.5989,-5.5987,-5.5985,-5.5984,-5.6031,-5.6087,-5.6083,-5.6126,-5.6129,-5.6143,-5.6191,-5.6166,-5.6205,-5.6236,-5.6194,-5.6253,-5.6251,-5.6276,-5.6277,-5.6322,-5.627,-5.6306,-5.6315,-5.6324,-5.6339,-5.6056,-5.6327,-5.6326,-5.6325,-5.6324,-5.6323,0,-5.6315,-5.6307,-5.6348,-5.6369,-5.6403,-5.6335,-5.6346,-5.6379,-5.6432,-5.6436,-5.6466,-5.6521,-5.6561,-5.6533,-5.6566,-5.6608,-5.6576,-5.6619,-5.6614,-5.6613,-5.6385,-5.6359,-5.6643,-5.6643,-5.6643,-5.6643,-5.6643,-5.6643,-5.6467,-5.6559,-5.6532,-5.6624,-5.6615,-5.6673,-5.6684,-5.6696,-5.6699,-5.6765,-5.6797,-5.6779,-5.6769,-5.6801,-5.6835,-5.6825,-5.6841,-5.6894,-5.6874,-5.6661,-5.6629,-5.6599,-5.6574,-5.6899,-5.6899,-5.7097,-5.7099,-5.71]},{"header":{"parameterUnit":"m.s-1","parameterCategory":1,"la1":30.2991,"la2":30.254,"lo1":-89.0895,"lo2":-89.0444,"dy":0.0017,"dx":0.0017,"nx":28,"ny":28,"refTime":"2023-09-26T03:00:00:Z","depth":0,"parameterNumber":3,"parameterNumberName":"V-component_of_WINDS"},"data":[0,0,0,0,0,0,0,0,0,0,0,0,0,0,0,0,0,0,0,0,0,0,0,0,0,0,0,0,0,0,0,0,0,0,0,0,0,0,0,0,0,0,0,0,0,0,0,0,0,0,0,0,0,0,0,0,0,0,-0.606,-0.6061,0,-0.6171,-0.6173,-0.6174,-0.6195,-0.6194,-0.6194,-0.6193,-0.6309,-0.6313,-0.6317,0,0,0,0,0,0,0,0,0,0,0,0,0,-0.5867,-0.5871,-0.606,-0.6062,-0.6063,-0.6171,-0.6173,-0.6174,-0.6195,-0.6194,-0.6193,-0.6192,-0.6308,-0.6313,-0.6318,0,0,0,0,0,0,0,0,0,0,0,0,0,-0.5962,-0.5872,-0.606,-0.6086,-0.609,-0.6171,-0.6173,-0.6175,-0.6196,-0.6194,-0.6193,-0.6192,-0.6307,-0.6312,-0.6318,-0.6381,0,0,-0.6336,-0.6339,0,0,0,0,0,0,0,0,-0.5957,-0.5969,-0.6081,-0.6085,-0.6089,-0.6168,-0.6148,-0.6244,-0.6196,-0.6156,-0.6193,-0.6191,-0.6264,-0.6273,-0.6297,-0.6387,-0.6392,-0.6337,-0.634,-0.6343,-0.6345,0,0,0,0,0,0,0,-0.595,-0.5964,-0.6104,-0.6083,-0.6087,-0.6093,-0.6105,-0.6166,-0.6216,-0.6159,-0.6161,-0.6174,-0.6266,-0.6291,-0.63,-0.6394,-0.6337,-0.6342,-0.6346,-0.6348,-0.6539,-0.654,0,0,0,0,0,0,-0.5938,-0.5959,-0.6101,-0.6108,-0.6018,-0.6098,-0.6111,-0.6144,-0.6215,-0.6225,-0.6175,-0.6174,-0.6282,-0.6293,-0.6304,-0.6382,-0.6343,-0.6348,-0.6352,-0.6537,-0.6539,-0.6541,0,0,0,0,0,0,-0.5934,-0.5951,-0.6096,-0.6034,-0.6053,-0.6102,-0.6139,-0.6147,-0.6173,-0.6227,-0.6236,-0.6192,-0.6281,-0.6296,-0.6361,-0.6386,-0.6351,-0.6356,-0.6536,-0.6538,-0.654,-0.6538,0,0,0,0,0,0,-0.5929,-0.5949,-0.5974,-0.6034,-0.6056,-0.6152,-0.6141,-0.615,-0.6182,-0.6183,-0.6245,-0.6254,-0.6281,-0.6352,-0.6367,-0.6394,-0.6361,-0.6534,-0.6537,-0.6539,-0.6536,-0.654,-0.6543,0,0,0,0,0,-0.5922,-0.597,-0.5975,-0.5992,-0.6087,-0.6153,-0.6165,-0.6194,-0.6184,-0.6209,-0.6244,-0.6252,-0.6381,-0.6359,-0.6376,-0.6404,-0.6532,-0.6536,-0.6539,-0.6535,-0.6539,-0.6543,0,0,0,0,0,0,-0.5913,-0.5978,-0.5985,-0.6054,-0.6097,-0.6156,-0.6189,-0.6199,-0.6247,-0.6246,-0.628,-0.6294,-0.6358,-0.6388,-0.6362,-0.6468,-0.6456,-0.6463,-0.6447,-0.6452,-0.6455,-0.6447,-0.6366,0,0,0,0,0,-0.5918,-0.5966,-0.6021,-0.6076,-0.6098,-0.6139,-0.6169,-0.6187,-0.6234,-0.6253,-0.6293,-0.6339,-0.6389,-0.6422,-0.6472,-0.654,-0.6554,-0.6568,-0.6571,-0.6574,-0.658,-0.6617,-0.6624,-0.6552,-0.6552,-0.6552,0,0,-0.5932,-0.5973,-0.6001,-0.6075,-0.6111,-0.6159,-0.6155,-0.6207,-0.6243,-0.6262,-0.6325,-0.6356,-0.6409,-0.6476,-0.6507,-0.6503,-0.6602,-0.6578,-0.658,-0.6585,-0.6621,-0.6628,-0.6634,-0.6555,-0.6554,-0.6554,0,0,-0.598,-0.6016,-0.6066,-0.6101,-0.6155,-0.6182,-0.6194,-0.6251,-0.6271,-0.6336,-0.635,-0.6393,-0.648,-0.6517,-0.6547,-0.6606,-0.6616,-0.6622,-0.6641,-0.6676,-0.6682,-0.6687,-0.6708,-0.6715,-0.6627,-0.6627,-0.6627,0,-0.599,-0.6063,-0.6091,-0.6141,-0.6173,-0.619,-0.624,-0.6273,-0.6341,-0.6363,-0.6356,-0.6463,-0.6501,-0.6576,-0.659,-0.6614,-0.6628,-0.6615,-0.6679,-0.6684,-0.669,-0.671,-0.6717,-0.6627,-0.6627,-0.6627,-0.6627,0,-0.6072,-0.6122,-0.6155,-0.6218,-0.6254,-0.6304,-0.6339,-0.6372,-0.6386,-0.6414,-0.6478,-0.6523,-0.6581,-0.66,-0.6616,-0.6677,-0.6672,-0.6672,-0.666,-0.6696,-0.6716,-0.6724,-0.6628,-0.6628,-0.6628,-0.6628,0,0,-0.612,-0.6196,-0.6208,-0.6235,-0.6295,-0.6334,-0.6384,-0.644,-0.6467,-0.6512,-0.6555,-0.6626,-0.6625,-0.6659,-0.6679,-0.671,-0.6753,-0.6706,-0.6708,-0.6713,-0.6823,-0.6823,-0.6831,-0.6759,-0.676,-0.6762,-0.6818,0,-0.6176,-0.6265,-0.629,-0.6366,-0.6412,-0.6427,-0.6471,-0.6512,-0.6538,-0.6581,-0.6611,-0.6661,-0.6656,-0.6676,-0.6708,-0.6741,-0.6776,-0.6737,-0.68,-0.6801,-0.6786,-0.6842,-0.6843,-0.6894,-0.6826,-0.6827,-0.6828,0,-0.6253,-0.6298,-0.6377,-0.6429,-0.6449,-0.6488,-0.6539,-0.658,-0.6627,-0.6643,-0.668,-0.6696,-0.6748,-0.6733,-0.6806,-0.6779,-0.6806,-0.6825,-0.6828,-0.6836,-0.6817,-0.6851,-0.6911,-0.6918,-0.684,-0.6839,-0.6839,0,-0.6279,-0.636,-0.6418,-0.6441,-0.6503,-0.6529,-0.6556,-0.6601,-0.6632,-0.6677,-0.6698,-0.6749,-0.6777,-0.6816,-0.6845,-0.6831,-0.6915,-0.6902,-0.6931,-0.693,-0.6949,-0.6948,-0.7014,-0.6965,-0.6965,-0.6965,-0.6965,0,-0.6339,-0.6387,-0.643,-0.6466,-0.6519,-0.6548,-0.66,-0.6628,-0.6667,-0.6708,-0.6725,-0.6763,-0.6799,-0.6842,-0.6865,-0.6922,-0.6934,-0.695,-0.6955,-0.6948,-0.6946,-0.6967,-0.6965,-0.6967,-0.6967,-0.6966,-0.6966,0,-0.6379,-0.6409,-0.6473,-0.6525,-0.6539,-0.6576,-0.6621,-0.6656,-0.6682,-0.6734,-0.6747,-0.6788,-0.684,-0.6872,-0.6938,-0.6953,-0.7015,-0.7019,-0.6999,-0.7002,-0.7028,-0.7025,-0.7111,-0.7124,-0.7066,-0.7066,-0.7067,0,-0.6415,-0.6452,-0.6507,-0.6535,-0.6562,-0.6607,-0.6638,-0.6667,-0.6698,-0.6752,-0.6781,-0.6832,-0.6876,-0.6957,-0.6993,-0.7043,-0.7049,-0.7075,-0.7056,-0.7048,-0.7049,-0.7046,-0.705,-0.7078,-0.7079,-0.7079,-0.708,0,-0.6476,-0.6489,-0.6532,-0.6581,-0.6617,-0.6657,-0.6696,-0.6718,-0.6754,-0.6788,-0.684,-0.6873,-0.6939,-0.699,-0.7043,-0.7071,-0.7081,-0.7085,-0.7094,-0.7088,-0.7074,-0.7082,-0.7007,-0.7083,-0.7083,-0.7083,-0.7082,-0.7082,-0.6515,-0.6548,-0.6592,-0.6639,-0.6671,-0.6708,-0.6742,-0.6771,-0.6815,-0.687,-0.6884,-0.6938,-0.6981,-0.7053,-0.7081,-0.7124,-0.7121,-0.7134,-0.7138,-0.7141,-0.7141,-0.7067,-0.7134,-0.7134,-0.7134,-0.7134,-0.7134,0,-0.6577,-0.6605,-0.6648,-0.6702,-0.6739,-0.6744,-0.6787,-0.6818,-0.6865,-0.6904,-0.6946,-0.7004,-0.7053,-0.7092,-0.7142,-0.7169,-0.7175,-0.7181,-0.718,-0.7186,-0.7141,-0.7128,-0.7176,-0.7176,-0.7176,-0.7176,-0.7176,-0.7176,-0.6614,-0.6669,-0.6686,-0.6758,-0.6786,-0.6838,-0.6862,-0.6895,-0.6926,-0.6991,-0.7031,-0.7055,-0.7094,-0.7147,-0.7192,-0.7202,-0.722,-0.7225,-0.7236,-0.7194,-0.719,-0.7185,-0.7173,-0.7229,-0.7229,-0.7278,-0.7278,-0.7279]}]]